sat.trackr.live / text

‹ back to catalog

STARLINK-3742

NORAD 52303 · 2022-041AU

PAYLOAD ACTIVE UNKNOWN

§ Identity

Operator
Country
US
Launch date
2022-04-21
Launch site
AFETR
Launch vehicle
Mass (kg)
RCS (m²)

Purposes: comms

External: N2YO · Heavens-Above · Gunter

§ Orbital elements

Epoch: 2026-09-19T17:53:09.645792Z

Period
93.90 min
Inclination
53.1587°
Eccentricity
0.0001170
Mean motion
15.33544248 rev/d
Perigee alt
464.4 km
Apogee alt
466.0 km
Semi-major
6,843.4 km
B*
1.2488e-5
RAAN
295.4040°
Arg perigee
83.7506°
Mean anomaly
276.3629°
Rev number
24,519

§ Raw data

STARLINK-37421 52303U 22041AU  26262.74525053  .00000038  00000+0  12488-4 0  99982 52303  53.1587 295.4040 0001170  83.7506 276.3629 15.33544248245191

JSON: /api/v1/satellites/52303 · /tle

For live sub-satellite position, see the globe view (requires WebGL).

§ Visibility from observer

Set your observer location to see the next 7 days of passes ≥ 10°. The values pass through the URL so the page stays shareable.

No JS? Fill the form by hand. The geolocation button needs JavaScript.